| time (UTC) | temp F | wind direction | speed MPH | gust MPH | rain 1hr in | rain 24hr in | rain mn in | humidity % | barometer mb |
| 20260504220051 | 81 | 254 | 2.0 | 10.0 | 0.00 | 0.00 | 0.00 | 44 | 1001.6 |
| 20260504214545 | 81 | 138 | 1.0 | 9.0 | 0.00 | 0.00 | 0.00 | 46 | 1001.7 |
| 20260504213040 | 82 | 252 | 1.0 | 8.0 | 0.00 | 0.00 | 0.00 | 46 | 1001.8 |
| 20260504211541 | 82 | 319 | 2.0 | 11.0 | 0.00 | 0.00 | 0.00 | 46 | 1001.9 |
| 20260504210052 | 82 | 262 | 2.0 | 7.0 | 0.00 | 0.00 | 0.00 | 44 | 1002.0 |
| 20260504204545 | 82 | 246 | 1.0 | 9.0 | 0.00 | 0.00 | 0.00 | 45 | 1002.1 |
| 20260504203037 | 82 | 227 | 2.0 | 12.0 | 0.00 | 0.00 | 0.00 | 46 | 1002.3 |
| 20260504201536 | 82 | 218 | 4.0 | 13.0 | 0.00 | 0.00 | 0.00 | 45 | 1002.5 |
| 20260504200045 | 82 | 148 | 3.0 | 8.0 | 0.00 | 0.00 | 0.00 | 45 | 1002.6 |
| 20260504194531 | 82 | 162 | 4.0 | 10.0 | 0.00 | 0.00 | 0.00 | 44 | 1002.7 |
| 20260504193027 | 81 | 216 | 1.0 | 10.0 | 0.00 | 0.00 | 0.00 | 47 | 1003.1 |
| 20260504191526 | 80 | 259 | 3.0 | 10.0 | 0.00 | 0.00 | 0.00 | 46 | 1003.2 |
| 20260504190025 | 81 | 218 | 2.0 | 8.0 | 0.00 | 0.00 | 0.00 | 48 | 1003.3 |
| 20260504184532 | 79 | 167 | 1.0 | 8.0 | 0.00 | 0.00 | 0.00 | 50 | 1003.5 |
| 20260504183025 | 77 | 143 | 3.0 | 7.0 | 0.00 | 0.00 | 0.00 | 52 | 1003.0 |
| 20260504181516 | 75 | 199 | 2.0 | 7.0 | 0.00 | 0.00 | 0.00 | 50 | 1003.5 |
| 20260504180014 | 76 | 272 | 2.0 | 7.0 | 0.00 | 0.00 | 0.00 | 48 | 1003.8 |
| 20260504174512 | 76 | 90 | 0.0 | 3.0 | 0.00 | 0.00 | 0.00 | 49 | 1004.0 |
| 20260504173012 | 78 | 131 | 0.0 | 5.0 | 0.00 | 0.00 | 0.00 | 49 | 1003.9 |
| 20260504171509 | 77 | 127 | 1.0 | 5.0 | 0.00 | 0.00 | 0.00 | 46 | 1004.2 |
| 20260504160106 | 76 | 221 | 1.0 | 16.0 | 0.00 | 0.00 | 0.00 | 49 | 1004.5 |
| 20260504081640 | 62 | 276 | 0.0 | 0.0 | 0.00 | 0.00 | 0.00 | 65 | 1007.4 |
| 20260504050012 | 65 | 210 | 0.0 | 3.0 | 0.00 | 0.00 | 0.00 | 57 | 1008.2 |
| 20260504044513 | 65 | 186 | 1.0 | 3.0 | 0.00 | 0.00 | 0.00 | 56 | 1008.3 |
| 20260504043012 | 65 | 184 | 0.0 | 1.0 | 0.00 | 0.00 | 0.00 | 56 | 1008.4 |
| 20260504041508 | 66 | 182 | 0.0 | 2.0 | 0.00 | 0.00 | 0.00 | 54 | 1008.5 |
| 20260504040006 | 66 | 169 | 0.0 | 3.0 | 0.00 | 0.00 | 0.00 | 53 | 1008.6 |
| 20260504034508 | 67 | 192 | 1.0 | 4.0 | 0.00 | 0.00 | 0.00 | 52 | 1008.7 |
| 20260504033005 | 67 | 158 | 0.0 | 2.0 | 0.00 | 0.00 | 0.00 | 52 | 1008.9 |
| 20260504031510 | 67 | 200 | 1.0 | 3.0 | 0.00 | 0.00 | 0.00 | 51 | 1009.0 |
| 20260504030003 | 67 | 162 | 0.0 | 0.0 | 0.00 | 0.00 | 0.00 | 53 | 1009.1 |
| 20260504024503 | 67 | 150 | 0.0 | 0.0 | 0.00 | 0.00 | 0.00 | 53 | 1009.2 |
| 20260504023004 | 67 | 209 | 0.0 | 1.0 | 0.00 | 0.00 | 0.00 | 53 | 1009.0 |
| 20260504021506 | 68 | 295 | 0.0 | 0.0 | 0.00 | 0.00 | 0.00 | 53 | 1008.9 |
| 20260504020003 | 69 | 171 | 0.0 | 0.0 | 0.00 | 0.00 | 0.00 | 51 | 1008.7 |
| 20260504014608 | 69 | 153 | 0.0 | 0.0 | 0.00 | 0.00 | 0.00 | 51 | 1008.7 |
| 20260504013100 | 70 | 195 | 0.0 | 0.0 | 0.00 | 0.00 | 0.00 | 50 | 1008.7 |
| 20260504011602 | 71 | 195 | 0.0 | 0.0 | 0.00 | 0.00 | 0.00 | 49 | 1008.7 |
| 20260504004558 | 75 | 252 | 0.0 | 0.0 | 0.00 | 0.00 | 0.00 | 42 | 1008.7 |
| 20260504003104 | 76 | 253 | 0.0 | 0.0 | 0.00 | 0.00 | 0.00 | 40 | 1008.7 |
| 20260504001601 | 77 | 268 | 0.0 | 2.0 | 0.00 | 0.00 | 0.00 | 39 | 1008.8 |
| 20260504000100 | 77 | 270 | 0.0 | 3.0 | 0.00 | 0.00 | 0.00 | 38 | 1008.8 |
| 20260503234553 | 77 | 258 | 1.0 | 4.0 | 0.00 | 0.00 | 0.00 | 37 | 1008.8 |
| 20260503233053 | 78 | 255 | 1.0 | 5.0 | 0.00 | 0.00 | 0.00 | 37 | 1008.8 |
| 20260503231551 | 78 | 265 | 2.0 | 7.0 | 0.00 | 0.00 | 0.00 | 36 | 1008.9 |
| 20260503230104 | 78 | 233 | 3.0 | 8.0 | 0.00 | 0.00 | 0.00 | 35 | 1009.0 |
| 20260503224547 | 79 | 275 | 1.0 | 7.0 | 0.00 | 0.00 | 0.00 | 36 | 1009.1 |
| 20260503223101 | 79 | 310 | 2.0 | 7.0 | 0.00 | 0.00 | 0.00 | 35 | 1009.2 |
| 20260503221551 | 79 | 264 | 3.0 | 8.0 | 0.00 | 0.00 | 0.00 | 35 | 1009.2 |